Piloten Info

Wichtige Hinweise:

  • Tower Frequenz 122,330 kHz - keine Landung ohne Funkkontakt
  • PPR Betrieb
  • Temporäre Hindernisse (Baukräne) nahe dem Flugplatz durch Bauarbeiten entlang der Nürnberger Straße (Östliche Seite).
  • Starts auf RWY 09 sind nicht gestattet. Start generell auf RWY 27. Bei Planung Rückenwinde berücksichtigen!
  • Bei Anflügen auf RWY 27 sind Hindernisse vorhanden, aus diesem Grund die versetzte Schwelle27!
  • Der Flugverein Neumarkt führt seine Starts generell auf RWY 27 und Landungen auf RWY09 durch.
  • Es besteht keine Tankmöglichkeit.

Diese Hinweis sind als Ergänzung / Hilfe zur regulären Flugplanung gedacht.

Auszüge aus AIP VFR ohne Gewähr - es gelten die offiziellen Veröffentlichungen.




Wind Infos (info ohne Gewähr - nicht geeicht)

Wind Speed
Wind Direction


METAR Informationen der nächstgelegenen Flughäfen


EDDN / Flughafen Nürnberg „Albrecht Dürer“

EDDN 162220Z 25001KT CAVOK 10/10 Q1017

ETIC / Fliegerhorst Grafenwöhr AAF

ETIC 162056Z AUTO 00000KT 9999 CLR 11/10 A3001 RMK AO2 SLP161 T01120104 52008 $

ETIH / Fliegerhorst Hohenfels AAF

ETIH 162156Z AUTO 30005KT 9999 FEW037 12/10 A3004 RMK AO2 SLP168 T01210103 401880119 $